Temperature
23 24 25 26 26 26 24 22 21 21 21 21 20 20 21 21 21 20 20 20 20 20 20 20 19 19 19 19 18 18 18 18 18 17 17 17 17 17 17 17 17 16 16 16
23 25 25 25 25 25 25 24 22 22 21 21 21 21 21 21 20 20 20 20 20 20 20 20 19 19 19 18 18 18 18 18 17 17 17 17 17 17 17 16 16 16 16 16
21 23 24 23 24 24 23 22 22 21 21 20 20 20 20 20 20 20 20 20 20 20 20 19 19 19 19 18 18 18 18 17 17 17 17 16 16 16 16 16 16 16 16 16
20 22 22 22 23 24 22 22 21 21 20 20 20 20 20 21 20 20 20 20 20 19 19 19 19 19 18 18 18 17 17 17 17 17 16 16 16 16 16 15 15 15 15 15
18 20 21 22 23 23 21 20 21 20 20 20 20 20 19 20 20 20 20 20 19 19 19 19 18 18 18 18 17 17 17 17 17 16 16 16 16 16 15 15 15 15 15 15
18 20 21 21 22 23 21 19 20 20 19 19 20 17 18 20 20 20 20 19 19 19 19 18 18 18 18 17 17 17 17 17 16 16 16 16 16 16 15 15 15 15 15 15
18 19 19 20 22 22 20 19 20 20 20 20 19 19 19 19 19 19 19 19 19 19 18 18 18 17 17 17 17 16 16 16 16 16 16 15 15 15 15 15 15 15 14 14
17 18 19 20 21 20 19 20 20 20 20 20 19 19 19 19 19 18 18 18 18 18 18 18 17 17 17 16 16 16 16 16 16 16 15 15 15 15 14 14 14 14 14 14
17 17 18 20 20 21 21 21 20 20 20 20 19 19 19 18 18 18 18 18 18 17 17 17 17 16 16 16 16 16 16 15 15 15 15 15 14 14 14 14 14 13 13 13
16 17 18 19 20 20 21 21 20 20 20 20 19 18 18 18 17 17 17 17 17 17 16 16 16 16 16 16 16 15 15 15 15 15 14 14 14 14 14 13 13 13 13 13
16 17 17 18 19 19 19 20 20 20 19 19 19 18 18 17 17 17 17 16 16 16 16 15 15 15 15 15 15 15 15 15 14 14 14 14 14 14 13 13 13 13 13 13
15 16 16 17 18 19 19 18 19 19 18 18 18 18 17 17 16 16 16 16 15 15 15 15 15 14 14 14 14 14 14 14 14 14 14 13 13 13 13 13 13 13 13 13
18 18 18 18 18 18 18 18 18 18 18 18 17 17 17 16 16 15 15 15 15 15 14 14 14 14 14 14 14 14 14 13 13 13 13 13 13 13 13 13 13 13 13 13
18 18 17 17 17 17 17 17 17 17 17 17 17 16 16 16 15 15 15 15 14 14 14 14 14 13 13 13 13 13 13 13 13 13 13 13 13 13 13 13 13 13 13 12
17 18 17 17 17 17 16 16 16 16 16 16 16 16 15 15 15 15 14 14 14 14 13 13 13 13 13 13 13 13 12 12 12 12 12 12 12 12 12 12 12 12 12 12
17 17 17 16 16 16 16 16 16 15 15 15 15 15 15 15 14 14 14 13 13 13 13 12 13 12 12 12 12 12 12 12 12 12 12 12 12 12 12 12 12 12 12 12
17 16 16 16 16 15 15 15 15 15 15 15 15 14 14 14 13 13 13 13 13 13 12 12 12 12 12 12 12 12 12 12 11 11 11 11 11 11 11 11 11 11 11 11
17 17 16 16 16 15 15 15 15 15 15 14 14 14 14 13 13 12 12 12 12 12 12 12 12 11 11 11 11 11 11 11 11 11 11 11 11 11 11 11 11 11 11 11
16 16 16 15 15 15 15 15 14 14 14 14 14 13 13 13 12 12 12 12 11 11 11 11 11 11 11 11 11 11 11 11 11 11 11 11 11 11 11 11 11 11 10 10
16 15 15 15 15 15 14 14 14 14 14 13 13 13 12 12 12 12 12 11 11 11 11 11 11 11 11 11 10 10 10 10 10 10 10 10 10 10 10 10 10 10 10 10
15 15 14 14 14 14 14 14 14 13 13 13 13 12 12 12 11 11 11 11 11 10 10 10 10 10 10 10 10 10 10 10 10 10 10 10 10 10 10 10 10 10 10 10
14 14 14 14 13 13 13 13 13 13 12 12 12 12 12 11 11 11 11 10 10 10 10 10 10 10 10 10 10 10 10 10 10 10 10 10 10 10 10 10 10 9 9 9
14 14 13 13 13 13 13 13 12 12 12 12 12 12 11 11 11 11 10 10 10 10 10 10 10 10 10 10 10 9 9 9 9 9 9 9 9 9 9 9 9 9 9 9
13 13 13 13 13 12 12 12 12 12 12 12 12 11 11 11 11 10 10 10 10 10 10 9 9 9 9 9 9 9 9 9 9 9 9 9 9 9 9 9 9 9 9 9
13 13 12 12 12 12 12 12 12 12 12 11 11 11 11 11 10 10 10 10 10 10 9 9 9 9 9 9 9 9 9 9 9 8 8 8 9 9 8 8 8 8 8 8
12 12 12 12 12 12 12 12 11 11 11 11 11 11 11 10 10 10 10 10 9 9 9 9 9 9 9 9 9 9 9 8 8 8 8 8 8 8 8 8 8 8 8 8
12 12 12 12 12 12 12 11 11 11 11 11 10 10 10 10 10 10 10 9 9 9 9 9 9 9 9 8 8 8 8 8 8 8 8 8 8 8 8 8 8 7 7 7
Wind_Speed
5 5 2 1 3 1 3 5 6 7 8 9 9 9 8 8 8 8 7 8 8 8 6 5 5 5 4 4 4 4 4 3 3 3 3 3 2 2 2 3 3 2 1 1
2 1 2 2 3 0 1 3 6 7 4 5 7 6 7 8 9 9 8 8 7 7 6 5 5 5 4 4 4 4 4 3 2 2 2 3 2 2 2 2 2 2 1 1
3 4 3 2 3 1 2 2 6 6 5 6 6 7 8 8 7 7 7 7 6 6 6 5 6 5 5 5 4 4 4 3 3 3 2 2 3 2 2 2 2 2 2 2
1 3 2 6 2 6 7 4 4 5 7 9 8 6 5 6 7 6 6 6 5 4 4 3 4 4 4 4 4 4 4 3 3 3 3 2 2 2 2 2 2 2 2 1
3 2 3 3 2 2 6 2 1 6 7 7 7 6 4 2 5 6 5 5 5 5 4 3 3 4 5 4 3 3 3 3 3 3 3 3 2 2 2 2 2 2 2 2
4 3 4 5 5 2 8 1 2 5 6 5 5 4 3 3 4 4 4 4 4 5 4 3 2 4 5 4 3 3 3 3 2 3 3 3 3 3 2 2 2 2 2 2
3 3 4 5 4 2 4 6 4 5 6 6 5 6 6 6 5 5 5 4 5 5 4 3 3 4 3 2 3 3 3 2 2 2 3 3 3 2 2 1 1 1 1 2
3 3 5 4 2 3 6 4 3 4 5 6 5 5 5 6 5 5 4 4 4 4 3 2 3 4 3 2 3 2 3 2 2 2 2 2 2 2 2 2 1 1 1 2
5 5 5 2 2 3 5 5 3 3 4 6 7 6 5 5 5 4 5 4 3 4 3 1 1 3 3 3 2 2 2 2 2 2 1 2 2 2 1 1 1 1 1 3
2 0 1 2 4 3 4 5 3 5 5 7 7 7 6 5 4 4 4 3 3 4 3 1 0 1 2 2 2 2 2 2 2 2 1 1 1 2 2 2 2 2 2 3
2 1 3 4 3 3 4 5 7 6 6 7 9 7 6 4 4 3 3 3 3 3 3 1 1 1 1 1 1 1 1 1 1 1 2 1 1 2 3 3 4 4 4 4
4 5 3 2 1 3 6 5 5 8 7 6 7 7 6 5 4 4 4 3 3 2 2 1 1 1 2 1 0 2 1 1 1 1 1 1 1 2 3 3 4 6 7 6
3 2 3 1 3 5 6 5 5 7 8 6 5 6 6 5 4 4 4 3 3 2 1 1 1 1 2 1 0 1 2 2 1 1 1 1 2 2 2 4 4 4 6 7
3 5 4 3 5 6 7 7 7 8 7 6 5 6 6 5 4 4 3 2 2 2 1 1 1 1 2 1 0 1 1 1 1 2 2 2 3 3 3 3 3 3 4 6
2 5 5 5 7 7 6 7 8 7 6 6 5 5 5 5 3 2 2 2 2 2 1 0 1 2 3 1 0 1 1 1 2 2 2 2 3 3 3 3 3 3 3 4
4 6 7 7 7 5 6 7 6 4 4 4 4 4 4 4 3 2 1 1 2 1 1 1 1 3 2 1 1 2 2 2 2 2 2 2 2 2 3 3 3 3 3 3
7 5 5 5 4 4 4 4 5 5 4 4 4 4 4 4 4 2 2 1 1 1 1 1 2 3 2 2 1 2 2 3 4 3 3 3 3 3 3 3 3 4 5 5
8 7 6 6 5 4 3 3 4 4 4 4 4 5 4 4 3 1 1 1 2 2 2 2 2 3 3 3 2 2 2 3 2 3 3 2 2 3 3 3 4 4 4 4
6 6 5 5 4 5 4 4 4 4 4 5 5 4 3 3 2 1 1 2 2 1 3 3 4 3 3 3 3 2 2 2 2 2 2 2 3 3 3 3 3 3 3 2
7 7 7 6 5 5 5 4 4 4 4 5 5 4 3 2 1 2 2 1 1 2 2 3 3 3 3 4 4 2 2 2 2 2 2 2 2 3 3 3 3 3 3 3
7 7 6 5 4 4 5 4 4 3 3 4 4 3 2 1 1 1 2 1 3 2 2 3 2 3 3 4 4 2 1 1 2 2 2 3 3 3 3 3 2 2 2 3
5 5 5 4 4 3 3 3 3 3 3 3 2 2 2 2 1 1 0 2 3 2 2 2 2 4 5 5 2 2 2 1 1 2 2 2 2 3 3 2 2 2 3 2
4 4 4 3 3 3 2 2 3 3 3 2 2 2 2 2 1 1 1 3 2 2 2 2 4 5 5 3 2 2 2 2 1 1 1 2 2 2 2 2 2 2 2 2
4 4 3 3 4 3 2 0 1 2 2 2 2 3 3 1 0 1 2 2 2 2 2 3 5 5 5 2 2 2 2 2 2 2 2 2 2 2 2 2 2 1 1 1
3 3 3 4 4 3 2 1 1 1 1 1 1 1 2 2 2 2 2 1 1 1 2 3 5 5 3 2 2 2 2 2 2 2 2 2 1 1 1 1 1 1 0 0
2 2 2 3 4 3 3 2 2 1 1 1 0 0 1 1 1 1 1 0 1 1 2 2 3 3 2 2 2 2 2 2 2 2 1 1 1 1 1 1 1 1 0 0
1 1 1 1 1 2 2 2 2 2 2 2 1 1 1 1 1 1 1 1 1 1 1 1 2 2 2 2 2 2 2 2 1 1 1 1 1 1 0 0 0 0 1 1
Wind_Direction
217 228 203 273 268 210 148 174 168 187 173 188 180 171 168 161 155 146 153 154 159 165 167 162 159 162 163 158 160 157 150 152 182 186 184 179 165 170 169 163 169 185 187 171
331 328 68 19 320 207 142 123 134 140 179 193 169 143 145 152 156 155 164 166 165 166 167 164 166 167 167 169 174 161 152 159 167 159 175 186 186 176 166 170 165 173 179 180
278 292 45 346 279 168 108 113 138 163 195 150 135 148 159 155 151 156 162 164 166 174 177 182 185 178 175 179 170 163 164 169 169 170 169 190 190 169 184 193 179 178 190 169
173 46 201 238 241 115 103 71 95 134 146 146 150 148 148 141 137 144 151 156 165 167 166 177 167 159 158 155 158 165 171 179 181 176 172 170 168 183 202 204 197 203 207 196
124 151 256 288 304 149 120 54 94 136 139 142 127 85 53 117 136 152 157 154 161 162 151 152 159 152 140 140 153 159 170 189 191 181 180 179 181 196 197 190 208 214 199 186
129 150 213 246 279 188 108 90 271 146 147 153 128 127 223 208 151 140 131 130 136 137 127 141 168 152 142 154 159 181 192 191 191 187 185 191 201 204 199 191 209 206 200 204
154 184 245 266 288 69 138 212 222 160 154 155 164 181 187 164 153 147 137 130 131 131 134 155 159 141 143 157 194 209 189 174 171 172 181 191 199 203 198 190 178 186 204 237
139 167 245 290 38 147 196 194 156 145 154 149 142 129 128 137 137 125 117 116 124 129 136 151 139 131 147 200 220 196 175 168 172 178 184 182 181 198 182 161 159 188 229 273
175 203 239 285 144 165 149 130 134 141 159 142 133 128 127 138 137 127 122 120 116 118 111 95 129 145 171 224 213 179 168 178 184 184 185 167 170 181 176 168 176 217 232 257
82 49 11 52 67 76 105 111 121 134 137 135 133 137 137 140 137 131 128 126 119 112 104 81 32 167 211 230 208 163 174 202 201 181 185 169 174 176 183 197 205 214 232 252
104 182 42 23 44 74 70 84 93 101 113 133 133 132 134 138 140 138 129 126 127 126 122 115 33 11 316 283 131 136 163 201 214 194 180 180 201 218 213 217 209 210 226 229
205 220 159 237 282 87 86 79 96 100 94 102 123 132 130 134 138 135 131 126 116 112 114 105 67 7 340 334 78 143 155 224 232 215 206 205 218 306 306 268 252 232 224 227
174 164 143 156 76 81 85 90 100 109 116 115 116 123 123 125 128 124 122 121 127 140 127 97 67 4 328 311 267 181 193 211 226 231 225 221 217 219 281 315 315 290 260 248
125 106 90 81 82 73 77 79 82 84 87 99 109 110 118 118 114 121 137 157 147 118 95 87 60 337 309 289 176 218 225 222 224 235 243 241 236 232 228 237 274 293 292 272
115 122 132 113 88 79 83 87 83 78 78 77 88 98 110 115 125 151 164 148 118 99 87 58 358 311 308 308 274 244 234 239 241 240 243 249 250 247 243 242 242 257 276 293
119 105 102 101 100 92 87 92 95 95 95 93 90 96 112 125 128 117 99 119 121 156 255 281 294 299 311 313 306 299 271 258 252 250 251 256 262 261 255 245 244 245 246 254
127 123 123 120 114 100 101 119 128 127 114 104 106 108 103 98 85 64 37 43 116 179 233 245 286 309 314 297 275 276 281 277 278 276 257 251 253 251 249 244 245 247 250 247
149 152 154 157 154 137 124 122 126 128 128 131 115 103 102 105 110 99 40 34 34 19 353 321 315 320 314 300 280 270 268 268 261 256 257 255 255 247 245 243 243 251 263 265
124 127 127 126 132 135 137 136 139 141 133 124 118 119 128 133 131 102 67 64 55 6 318 319 330 335 314 302 306 277 275 280 283 273 264 263 267 261 249 245 249 254 253 252
106 107 105 101 100 115 123 128 127 129 129 125 117 107 90 78 101 97 79 71 251 241 266 305 320 318 314 314 328 298 280 270 264 270 268 264 263 263 258 251 244 245 242 234
111 110 108 107 101 113 122 123 124 126 121 120 125 130 127 111 97 90 79 355 307 306 311 316 315 310 313 320 323 314 302 291 273 264 268 268 271 271 266 261 255 251 250 247
112 113 116 115 114 114 115 122 126 121 116 120 128 126 117 107 85 66 343 247 270 301 320 315 310 320 330 331 322 318 310 300 285 276 278 277 273 276 275 265 251 252 254 248
119 119 120 125 127 123 110 114 128 138 144 150 147 144 148 172 166 148 279 283 281 322 336 312 317 327 336 340 336 327 322 316 290 272 278 282 277 276 274 268 257 243 247 249
117 117 127 133 117 108 101 105 147 157 165 167 168 169 157 157 248 231 219 253 272 303 312 311 327 338 342 345 333 327 321 310 295 284 286 289 283 278 275 273 271 260 241 223
122 122 123 126 127 148 166 131 72 47 93 138 186 193 176 165 181 217 229 241 268 313 307 318 336 343 347 340 332 325 318 316 321 314 302 298 312 322 311 303 276 251 235 186
137 156 173 173 174 181 179 161 158 173 151 125 71 83 134 134 159 173 182 251 333 350 328 312 314 328 332 332 326 322 320 324 336 341 333 329 350 21 30 29 7 9 28 80
128 143 146 140 179 184 173 165 166 171 165 161 183 233 176 154 142 128 99 68 22 347 327 320 317 322 329 336 336 329 331 335 343 355 6 13 32 49 34 28 27 53 95 100
Height
1484 1479 1478 1480 1479 1479 1486 1492 1502 1501 1500 1497 1494 1494 1495 1497 1499 1501 1503 1504 1505 1506 1507 1509 1510 1512 1513 1513 1514 1514 1515 1515 1514 1515 1515 1515 1515 1514 1514 1514 1514 1514 1514 1514
1484 1477 1477 1481 1478 1478 1481 1484 1489 1493 1497 1490 1491 1492 1495 1496 1498 1500 1502 1503 1503 1505 1506 1507 1509 1510 1511 1512 1512 1513 1513 1512 1513 1513 1513 1513 1512 1512 1512 1512 1512 1512 1511 1511
1495 1483 1482 1493 1484 1480 1483 1483 1486 1494 1492 1489 1492 1492 1493 1494 1496 1498 1501 1502 1503 1503 1504 1506 1508 1508 1509 1509 1510 1510 1510 1510 1511 1511 1511 1510 1510 1510 1509 1509 1509 1508 1508 1508
1498 1494 1507 1494 1477 1476 1481 1484 1482 1483 1485 1486 1488 1491 1492 1493 1495 1497 1499 1501 1502 1503 1503 1504 1505 1506 1507 1508 1508 1508 1508 1508 1508 1508 1508 1509 1508 1508 1507 1506 1506 1506 1505 1505
1503 1506 1501 1486 1477 1477 1483 1490 1483 1483 1485 1487 1488 1490 1493 1494 1494 1495 1497 1499 1500 1502 1502 1502 1503 1503 1504 1505 1505 1505 1505 1506 1506 1506 1506 1506 1506 1505 1505 1504 1503 1503 1502 1502
1498 1502 1505 1490 1476 1474 1480 1494 1484 1482 1484 1485 1487 1495 1496 1494 1494 1495 1496 1497 1499 1500 1500 1500 1500 1501 1502 1502 1502 1502 1502 1503 1503 1503 1503 1503 1503 1502 1502 1501 1501 1500 1499 1499
1496 1500 1495 1480 1474 1473 1492 1493 1483 1481 1481 1483 1484 1487 1490 1491 1493 1494 1495 1496 1497 1498 1498 1498 1499 1499 1499 1499 1499 1499 1499 1499 1499 1499 1500 1500 1500 1499 1499 1498 1498 1497 1497 1496
1496 1501 1497 1476 1474 1479 1482 1478 1479 1479 1480 1481 1482 1485 1487 1489 1491 1493 1494 1495 1496 1496 1496 1496 1497 1497 1496 1496 1496 1496 1496 1496 1496 1495 1496 1496 1496 1496 1496 1496 1495 1494 1494 1493
1488 1490 1480 1475 1474 1475 1475 1476 1478 1479 1480 1480 1482 1484 1486 1488 1490 1491 1492 1493 1494 1494 1494 1494 1495 1495 1494 1494 1494 1494 1493 1493 1492 1492 1492 1492 1493 1493 1493 1493 1492 1492 1491 1491
1483 1480 1478 1476 1475 1475 1475 1476 1477 1478 1478 1479 1481 1483 1485 1487 1489 1490 1491 1492 1492 1492 1492 1492 1492 1492 1492 1491 1490 1490 1490 1490 1490 1489 1489 1490 1490 1490 1490 1490 1489 1489 1489 1488
1483 1481 1479 1477 1476 1476 1476 1476 1476 1477 1478 1479 1481 1483 1484 1486 1487 1489 1490 1490 1490 1490 1489 1489 1489 1489 1489 1488 1487 1487 1487 1487 1487 1487 1487 1487 1487 1487 1487 1487 1487 1486 1485 1485
1483 1478 1479 1479 1478 1477 1475 1476 1476 1477 1478 1480 1481 1482 1483 1485 1486 1488 1488 1488 1488 1488 1487 1487 1487 1486 1486 1486 1485 1485 1485 1485 1485 1484 1484 1484 1484 1483 1483 1484 1483 1482 1482 1481
1476 1476 1477 1478 1477 1477 1476 1477 1478 1478 1478 1480 1481 1482 1483 1484 1485 1486 1486 1487 1486 1486 1485 1485 1484 1484 1484 1484 1484 1483 1482 1482 1482 1482 1482 1481 1481 1480 1480 1480 1480 1479 1478 1477
1476 1477 1478 1478 1476 1477 1477 1478 1478 1479 1479 1479 1480 1481 1482 1483 1484 1484 1485 1485 1485 1484 1484 1483 1483 1483 1483 1482 1482 1480 1480 1479 1479 1479 1478 1478 1478 1477 1477 1476 1475 1474 1474 1473
1477 1477 1478 1477 1477 1477 1478 1478 1478 1479 1480 1480 1481 1481 1482 1482 1483 1483 1483 1483 1483 1482 1482 1482 1481 1480 1480 1480 1479 1478 1477 1476 1476 1475 1475 1475 1474 1474 1474 1473 1472 1471 1470 1469
1476 1477 1478 1478 1478 1478 1478 1478 1478 1479 1480 1481 1481 1481 1481 1482 1482 1482 1482 1482 1481 1480 1480 1479 1479 1478 1478 1477 1476 1475 1474 1474 1473 1472 1472 1471 1471 1470 1470 1469 1468 1467 1466 1465
1473 1475 1477 1478 1477 1477 1478 1479 1479 1479 1479 1480 1480 1481 1481 1481 1480 1481 1481 1480 1480 1479 1478 1478 1477 1476 1475 1474 1473 1472 1471 1470 1470 1469 1469 1468 1468 1467 1466 1465 1464 1463 1462 1461
1472 1473 1475 1476 1476 1477 1478 1478 1479 1479 1479 1480 1480 1480 1480 1480 1479 1479 1479 1479 1478 1478 1477 1476 1476 1474 1473 1472 1471 1470 1469 1468 1467 1466 1466 1465 1464 1463 1463 1462 1461 1460 1459 1458
1471 1473 1475 1476 1477 1477 1477 1478 1479 1479 1479 1479 1479 1479 1479 1479 1479 1478 1478 1477 1476 1475 1475 1475 1474 1472 1471 1470 1468 1467 1466 1465 1464 1463 1463 1462 1461 1460 1459 1458 1457 1456 1455 1454
1472 1473 1474 1476 1477 1476 1477 1478 1478 1478 1478 1478 1478 1478 1478 1478 1478 1477 1477 1476 1475 1474 1473 1472 1471 1470 1468 1467 1466 1465 1463 1462 1461 1460 1459 1458 1457 1456 1455 1454 1453 1452 1451 1451
1472 1473 1474 1475 1476 1476 1477 1477 1477 1477 1477 1477 1477 1477 1477 1477 1477 1477 1475 1474 1474 1473 1472 1470 1469 1467 1466 1465 1464 1462 1461 1460 1459 1457 1456 1455 1454 1452 1451 1450 1449 1449 1448 1447
1472 1473 1474 1474 1475 1475 1475 1476 1476 1476 1476 1476 1477 1477 1476 1476 1476 1475 1475 1474 1472 1471 1470 1468 1467 1466 1464 1463 1461 1460 1458 1457 1456 1455 1453 1452 1451 1449 1448 1447 1446 1445 1445 1444
1472 1472 1473 1474 1474 1474 1474 1475 1475 1475 1476 1476 1476 1475 1475 1475 1474 1473 1473 1473 1471 1470 1468 1467 1466 1464 1462 1461 1459 1458 1457 1455 1454 1452 1451 1450 1448 1447 1445 1444 1443 1443 1442 1441
1471 1472 1473 1473 1474 1474 1475 1475 1475 1475 1475 1475 1475 1475 1474 1474 1473 1473 1472 1472 1470 1469 1467 1465 1464 1462 1461 1459 1457 1456 1454 1453 1451 1450 1449 1447 1446 1444 1443 1442 1441 1441 1440 1438
1471 1471 1472 1473 1473 1474 1474 1474 1474 1475 1475 1475 1475 1474 1474 1473 1473 1472 1471 1470 1469 1467 1466 1464 1462 1461 1459 1457 1456 1454 1453 1451 1449 1448 1446 1445 1443 1442 1441 1440 1440 1438 1437 1436
1470 1471 1472 1472 1472 1473 1473 1473 1474 1474 1474 1474 1473 1473 1473 1472 1472 1471 1470 1468 1467 1466 1464 1463 1461 1459 1457 1456 1454 1453 1451 1449 1448 1446 1444 1443 1442 1440 1439 1439 1438 1437 1435 1434
1469 1470 1471 1471 1472 1472 1473 1473 1473 1473 1473 1473 1472 1472 1472 1471 1470 1470 1468 1467 1466 1464 1463 1461 1460 1458 1457 1455 1453 1451 1450 1448 1447 1445 1443 1442 1440 1439 1438 1437 1436 1435 1434 1433